TimeAKST,TemperatureF,Dew PointF,Humidity,Sea Level PressureIn,VisibilityMPH,Wind Direction,Wind SpeedMPH,Gust SpeedMPH,PrecipitationIn,Events,Conditions,WindDirDegrees,DateUTC
12:53 AM,36.0,30.9,82,28.81,10.0,East,13.8,-,0.00,Rain,Light Rain,80,2012-12-26 09:53:00
1:53 AM,36.0,30.9,82,28.74,9.0,East,18.4,24.2,0.01,Rain-Snow,Light Rain,80,2012-12-26 10:53:00
2:53 AM,33.1,30.0,89,28.70,10.0,NNE,18.4,27.6,0.04,Rain-Snow,Light Rain,20,2012-12-26 11:53:00
3:07 AM,33.8,30.2,87,28.69,6.0,NE,18.4,24.2,0.01,Rain-Snow,Light Rain,40,2012-12-26 12:07:00
3:53 AM,33.1,30.9,92,28.65,6.0,NNE,16.1,-,0.03,Rain-Snow,Light Rain,30,2012-12-26 12:53:00
4:15 AM,33.8,30.2,87,28.64,10.0,NNE,16.1,23.0,0.01,Rain-Snow,Light Rain,30,2012-12-26 13:15:00
4:53 AM,34.0,30.9,89,28.62,7.0,NE,20.7,27.6,0.04,Snow,Light Snow,40,2012-12-26 13:53:00
5:45 AM,35.6,32.0,87,28.59,10.0,NE,18.4,24.2,0.06,Snow,Light Snow,40,2012-12-26 14:45:00
5:53 AM,35.1,32.0,89,28.58,10.0,NNE,18.4,25.3,0.06,Snow,Light Snow,30,2012-12-26 14:53:00
6:53 AM,37.9,33.1,83,28.59,9.0,East,18.4,26.5,0.00,Snow,Light Snow,80,2012-12-26 15:53:00
7:53 AM,35.1,32.0,89,28.56,10.0,North,12.7,-,0.01,Rain,Light Rain,10,2012-12-26 16:53:00
8:53 AM,34.0,30.9,89,28.55,10.0,North,9.2,-,0.00,Rain,Light Rain,350,2012-12-26 17:53:00
9:53 AM,35.1,32.0,89,28.55,10.0,NNE,9.2,-,0.00,Rain,Light Rain,20,2012-12-26 18:53:00
10:53 AM,34.0,32.0,92,28.56,10.0,North,9.2,-,0.00,,Overcast,360,2012-12-26 19:53:00
11:53 AM,34.0,32.0,92,28.58,9.0,North,3.5,-,N/A,,Overcast,360,2012-12-26 20:53:00
12:53 PM,34.0,30.9,89,28.57,10.0,NW,5.8,-,N/A,,Overcast,310,2012-12-26 21:53:00
1:53 PM,34.0,30.9,89,28.58,9.0,West,16.1,-,N/A,,Overcast,260,2012-12-26 22:53:00
2:53 PM,34.0,32.0,92,28.59,8.0,West,16.1,-,N/A,,Overcast,260,2012-12-26 23:53:00
3:00 PM,33.8,32.0,93,28.59,6.0,West,17.3,-,N/A,,Overcast,260,2012-12-27 00:00:00
3:51 PM,33.8,32.0,93,28.60,10.0,West,16.1,-,N/A,,Overcast,270,2012-12-27 00:51:00
3:53 PM,34.0,32.0,92,28.60,10.0,West,15.0,-,N/A,,Overcast,270,2012-12-27 00:53:00
4:11 PM,33.8,32.0,93,28.61,10.0,West,13.8,-,N/A,,Overcast,280,2012-12-27 01:11:00
4:40 PM,35.6,33.8,93,28.62,9.0,West,11.5,-,N/A,,Overcast,270,2012-12-27 01:40:00
4:53 PM,35.1,33.1,92,28.63,10.0,West,12.7,-,N/A,,Overcast,270,2012-12-27 01:53:00
5:53 PM,35.1,33.1,92,28.64,10.0,WSW,16.1,-,N/A,,Overcast,250,2012-12-27 02:53:00
6:29 PM,35.6,33.8,93,28.65,9.0,WSW,16.1,-,N/A,,Overcast,250,2012-12-27 03:29:00
6:53 PM,35.1,33.1,92,28.66,6.0,WSW,16.1,-,N/A,,Overcast,250,2012-12-27 03:53:00
7:20 PM,35.6,33.8,93,28.67,3.0,WSW,18.4,-,N/A,,Overcast,250,2012-12-27 04:20:00
7:35 PM,35.6,33.8,93,28.67,3.0,WSW,18.4,-,N/A,,Overcast,250,2012-12-27 04:35:00
7:53 PM,35.1,33.1,92,28.69,4.0,West,15.0,-,N/A,,Overcast,260,2012-12-27 04:53:00
8:13 PM,35.6,33.8,93,28.71,3.0,West,13.8,-,N/A,,Overcast,270,2012-12-27 05:13:00
8:20 PM,35.6,33.8,93,28.71,2.0,West,13.8,-,N/A,,Overcast,270,2012-12-27 05:20:00
8:38 PM,33.8,33.8,100,28.72,3.0,West,13.8,-,0.00,,Overcast,270,2012-12-27 05:38:00
8:48 PM,33.8,33.8,100,28.73,2.0,West,13.8,-,0.00,,Overcast,280,2012-12-27 05:48:00
8:53 PM,34.0,33.1,96,28.74,2.0,West,11.5,-,0.00,,Overcast,280,2012-12-27 05:53:00
9:04 PM,33.8,33.8,100,28.74,3.0,West,15.0,-,N/A,,Overcast,280,2012-12-27 06:04:00
9:53 PM,33.1,32.0,96,28.77,3.0,West,16.1,-,N/A,,Overcast,280,2012-12-27 06:53:00
10:53 PM,33.1,30.9,92,28.82,4.0,WNW,25.3,-,0.01,,Overcast,290,2012-12-27 07:53:00
11:53 PM,30.9,30.0,96,28.86,5.0,WNW,23.0,-,0.00,,Freezing Rain,290,2012-12-27 08:53:00